Regional Weather Roundup
Issued by NWS

Home | Current Version | Previous Version | Graphics & Text | Print | Product List | Glossary On
Versions: 1 2 3 4 5 6 7 8 9 10 11 12 13 14 15 16 17 18 19 20 21 22 23 24 25 26 27 28 29 30 31 32 33 34 35 36 37 38 39 40 41 42 43 44 45 46 47 48 49
000
ASUS45 KCYS 021410
RWRWY

WYOMING REGIONAL WEATHER ROUNDUP
NATIONAL WEATHER SERVICE CHEYENNE WY
800 AM MDT THU JUL 02 2015

NOTE:  "FAIR" INDICATES FEW OR NO CLOUDS BELOW 12,000 FEET
WITH NO SIGNIFICANT WEATHER AND/OR OBSTRUCTIONS TO VISIBILITY.

WYZ001-021500-
YELLOWSTONE NATIONAL PARK

CITY           SKY/WX    TMP DP  RH WIND       PRES   REMARKS
LK YELLOWSTONE   N/A     56  45  66 CALM      30.39R
W YELLOWSTONE  NOT AVBL

$$
WYZ002>013-054>058-071-098>099-021500-
NORTHERN WYOMING

CITY           SKY/WX    TMP DP  RH WIND       PRES   REMARKS
JACKSON        SUNNY     59  46  63 CALM      30.28R
CODY           FAIR      64  50  59 E5        30.24R
GREYBULL       FAIR      71  51  49 E5        30.15R
WORLAND        FAIR      69  54  58 SW5       30.18R
SHERIDAN       FAIR      71  55  56 W8        30.18S
BUFFALO        FAIR      64  56  75 N9        30.23S
GILLETTE       PTSUNNY   64  57  78 N5        30.17R
NEWCASTLE      NOT AVBL

$$
WYZ014>020-022>026-101>103-021500-
CENTRAL WYOMING

CITY           SKY/WX    TMP DP  RH WIND       PRES   REMARKS
BIG PINEY      FAIR      61  40  45 CALM      30.32R
PINEDALE       FAIR      61  43  51 CALM      30.33R
DUBOIS         NOT AVBL
LANDER         FAIR      67  55  65 CALM      30.26R
RIVERTON       FAIR      67  52  58 CALM      30.26S
CASPER         FAIR      61  56  83 SW5       30.24R
DOUGLAS        FAIR      64  61  90 NW6       30.21S

$$
WYZ021-027>030-104>119-021500-
SOUTHERN WYOMING

CITY           SKY/WX    TMP DP  RH WIND       PRES   REMARKS
EVANSTON       FAIR      63  44  50 CALM      30.30R
FORT BRIDGER   SUNNY     66  43  42 CALM      30.33R
ROCK SPRINGS   FAIR      64  52  64 E12       30.31R
RAWLINS        FAIR      62  55  77 NE13      30.30R
LARAMIE        FAIR      57  53  86 S13       30.32F
CHEYENNE       FAIR      62  56  80 W9        30.27R
TORRINGTON     FAIR      65  59  81 W9        30.15R

$$



USA.gov is the U.S. government's official web portal to all federal, state and local government web resources and services.